Location: Heiligenberg
(48.5381°N, 7.3897°E)
Time: 20:56:16
(UTC+00:00)

USA 305 - Pass Details

Date: 26 May 2022
Orbit: 549 x 553 km, 54.0° (Epoch: 14 June)

Event Time Altitude Azimuth Distance (km) Brightness Sun altitude
Exits shadow 02:38:40 - 272° (W) 2,648 5.9 -8.3°
Reaches altitude 10° 02:40:49 10° 280° (W) 1,826 5.1 -8.1°
Maximum altitude 02:44:45 41° 351° (N) 811 4.0 -7.6°
Drops below altitude 10° 02:48:42 10° 63° (ENE) 1,828 7.0 -7.2°
Sets 02:51:02 0° 71° (ENE) 2,722 7.8 -6.9°
